This is the latest recevied weather packets stored in our database for station/object KD8FRE. If no packets are shown the sender has not sent any weather packets the latest 10 day(s).
| Time | Temp. | Humidity | Pressure | Rain* | Wind** | Luminosity | Snow |
|---|---|---|---|---|---|---|---|
| 1778178599 | 10.56° C | 40% | 1012.4 hPa | 0 mm | - | 223 W/m² | - |
| 1778178295 | 10.56° C | 41% | 1012.5 hPa | 0 mm | - | 225 W/m² | - |
| 1778177991 | 10.56° C | 40% | 1012.4 hPa | 0 mm | - | 189 W/m² | - |
| 1778177688 | 10.56° C | 41% | 1012.4 hPa | 0 mm | - | 165 W/m² | - |
| 1778177384 | 11.11° C | 41% | 1012.4 hPa | 0 mm | - | 300 W/m² | - |
| 1778177081 | 10.56° C | 41% | 1012.5 hPa | 0 mm | - | 714 W/m² | - |
| 1778176777 | 10.56° C | 40% | 1012.6 hPa | 0 mm | - | 189 W/m² | - |
| 1778176474 | 11.11° C | 39% | 1012.8 hPa | 0 mm | - | 252 W/m² | - |
| 1778176172 | 10.56° C | 41% | 1012.8 hPa | 0 mm | - | 472 W/m² | - |
| 1778175869 | 10.56° C | 43% | 1012.7 hPa | 0 mm | - | 220 W/m² | - |
| 1778175566 | 10.56° C | 43% | 1012.8 hPa | 0 mm | - | 482 W/m² | - |
| 1778175263 | 10.56° C | 42% | 1012.9 hPa | 0 mm | - | 469 W/m² | - |
| 1778174960 | 10.56° C | 43% | 1013 hPa | 0 mm | - | 461 W/m² | - |
| 1778174656 | 10.56° C | 41% | 1013 hPa | 0 mm | - | 507 W/m² | - |
| 1778174352 | 10.56° C | 43% | 1013.1 hPa | 0 mm | - | 685 W/m² | - |
| 1778174049 | 10.56° C | 41% | 1013.1 hPa | 0 mm | - | 201 W/m² | - |
| 1778173746 | 10.56° C | 45% | 1013.2 hPa | 0 mm | - | 668 W/m² | - |
| 1778173443 | 10.56° C | 46% | 1013.3 hPa | 0 mm | - | 627 W/m² | - |
| 1778173139 | 10° C | 44% | 1013.4 hPa | 0 mm | - | 660 W/m² | - |
| 1778172835 | 10° C | 46% | 1013.2 hPa | 0 mm | - | 807 W/m² | - |
| 1778172531 | 10.56° C | 44% | 1013.4 hPa | 0 mm | - | 148 W/m² | - |
| 1778172228 | 10° C | 44% | 1013.3 hPa | 0 mm | - | 800 W/m² | - |
| 1778171925 | 10° C | 45% | 1013.3 hPa | 0 mm | - | 671 W/m² | - |
| 1778171623 | 10° C | 45% | 1013.1 hPa | 0 mm | - | 151 W/m² | - |
| 1778171319 | 10° C | 44% | 1013.2 hPa | 0 mm | - | 879 W/m² | - |
* Rain latest hour (hover to see other rain measurements)
** Current wind speed in m/s (hover to see current wind gust speed)